Location: Stamford Observatory
(41.1241°N, 73.5498°W)
Time: 07:43:18
(UTC-04:00)

Daily predictions for brighter satellites

Satellite Brightness Start Highest point End
(mag) Time Altitude Azimuth Time Altitude Azimuth Time Altitude Azimuth
SeaSat 1 2.6 19:28:16 10° SE 19:33:04 56° ENE 19:37:54 10° NNW
Cosmos 1833 Rocket 4.3 19:31:04 10° N 19:34:48 18° NE 19:38:31 10° E
Cosmos 1378 3.2 19:31:07 10° N 19:34:50 55° E 19:38:30 10° SSE
SJ-6B 2.7 19:33:06 10° SSE 19:36:48 66° ENE 19:40:30 10° N
Cosmos 1821 Rocket 4.1 19:30:43 10° S 19:37:03 67° E 19:43:20 10° NNE
SL-27 R/B 3.0 19:33:59 10° N 19:37:24 41° ENE 19:40:50 10° SE
Cosmos 1812 Rocket 3.7 19:33:40 10° S 19:37:58 55° E 19:42:17 10° NNE
Cosmos 2278 Rocket 2.5 19:33:27 10° S 19:38:48 45° ESE 19:44:11 10° NE
FENGYUN 3A 3.7 19:35:13 10° SSE 19:40:31 60° ENE 19:45:49 10° N
Cosmos 2228 4.4 19:38:47 10° SSW 19:42:50 44° WNW 19:46:55 10° N
BREEZE-M DEB (TANK) 4.4 19:43:28 10° NW 19:44:58 14° N 19:46:24 10° NE
OE (NEXTSAT) 4.5 19:42:57 10° SW 19:46:31 62° SSE 19:50:05 10° ENE
Cosmos 2298 Rocket 4.4 19:42:37 10° SSW 19:47:55 74° WNW 19:53:15 10° NNE
Meteor 1-4 Rocket 3.9 19:47:48 10° SE 19:50:15 18° E 19:52:42 10° NE
Resurs 01 Rocket 1.9 19:46:45 10° SE 19:50:58 48° ENE 19:55:15 10° N
Helios 1B rocket 3.7 19:48:07 10° NE 19:51:08 19° E 19:54:07 10° SE
FengYun 1-2 T 4.3 19:45:51 10° SSE 19:51:21 69° ENE 19:56:58 10° N
ATLAS 5 CENTAUR R/B 3.3 19:52:13 10° SE 19:54:39 14° ESE 19:57:08 10° ENE
Cosmos 1605 Rocket 4.2 19:49:08 10° SSE 19:55:07 50° E 20:01:13 10° NNE
Cosmos 1544 3.9 19:53:07 10° SSE 19:56:19 29° E 19:59:33 10° NNE
H-2A R/B 2.8 19:55:23 10° SSE 19:59:12 58° ENE 20:03:04 10° N
Lacrosse 4 Rocket 2.9 19:55:30 10° SW 19:59:19 39° WNW 20:03:09 10° NNE
Cosmos 1758 4.1 19:56:24 10° SSE 19:59:52 29° E 20:03:21 10° NNE
Helios 1A 3.9 19:57:17 10° SE 20:00:51 29° ENE 20:04:28 10° N
Meteor 1-24 Rocket 3.8 19:58:04 10° N 20:03:36 87° WSW 20:09:17 10° S
Cosmos 1953 2.9 20:04:55 10° SSE 20:08:36 35° E 20:12:19 10° NNE
Cosmos 2123 Rocket 4.0 20:02:23 10° N 20:08:45 79° E 20:15:01 10° S
Cosmos 2082 Rocket 3.0 20:03:39 10° N 20:08:48 34° ENE 20:12:41 16° ESE
Cosmos-2242 4.3 20:07:20 13° SE 20:09:44 20° E 20:12:52 10° NE
Cosmos 1939 Rocket 4.4 20:10:56 17° E 20:12:22 20° ENE 20:15:26 10° NNE
ALOS 2.9 20:10:12 10° S 20:14:49 61° W 20:19:27 10° NNW
Cosmos 1867 4.0 20:09:55 10° S 20:14:53 38° ESE 20:19:55 10° NE
USA 215 3.7 20:10:26 10° ENE 20:16:25 37° SE 20:22:21 10° SSW
Cosmos 1766 4.2 20:21:02 10° SSW 20:24:48 51° W 20:28:37 10° N
Spot 2 Rocket 3.6 20:19:52 10° SSE 20:24:58 81° WSW 20:30:07 10° NNW
Cosmos 1271 Rocket 3.8 20:25:41 25° ESE 20:26:05 26° E 20:29:27 10° NE
Lacrosse 5 rocket 2.9 20:26:38 10° NNW 20:29:37 20° NNE 20:30:54 17° NE
CZ-4B DEB 3.2 20:31:09 37° E 20:31:27 38° ENE 20:34:23 10° N
Timation 2 Rocket 4.4 20:25:46 10° NNW 20:31:49 44° ENE 20:35:07 24° ESE
Resurs 1-3 3.9 20:29:31 10° S 20:33:52 68° WSW 20:38:15 10° NNW
ISS -1.3 20:34:17 10° S 20:34:28 11° S 20:34:28 11° S
Spot 1 4.2 20:32:25 12° SSE 20:36:41 76° ENE 20:41:35 10° N
CZ-4B DEB 4.5 20:38:49 32° SE 20:40:16 64° ENE 20:43:50 10° N
RESURS DK-1 3.9 20:37:03 10° NW 20:40:49 34° WSW 20:44:33 10° S
BREEZE-M DEB (TANK) 3.4 20:38:21 10° WSW 20:41:18 75° NNW 20:49:46 10° ENE
Envisat 3.1 20:40:01 23° SE 20:42:59 55° ENE 20:47:58 10° N
H-2A R/B 4.3 20:43:27 10° NE 20:43:27 10° NE 20:43:29 10° NE
Cosmos 1674 2.6 20:42:46 10° N 20:46:31 60° E 20:47:22 46° SE
Cosmos 1447 Rocket 4.4 20:41:10 10° N 20:47:21 87° E 20:53:30 10° S
Cosmos 1408 Rocket 3.5 20:43:52 10° N 20:48:20 68° E 20:50:28 30° SSE
USA 267 4.5 20:45:27 17° ENE 20:49:23 30° NNE 20:54:53 10° NW
Lacrosse 5 2.9 20:45:22 10° WSW 20:50:13 44° NW 20:55:04 10° NE
Meteor 1-21 Rocket 4.2 20:44:29 10° N 20:50:21 87° E 20:55:59 11° S
Cosmos 1459 Rocket 4.0 20:44:39 10° SSE 20:50:44 55° E 20:56:45 10° NNE
Cosmos 1125 Rocket 3.4 20:46:00 10° SSW 20:51:12 87° WNW 20:56:27 10° NNE
CZ-2D R/B 4.5 20:48:54 10° S 20:52:34 42° W 20:56:17 10° NNW
Cosmos 2344 4.4 20:45:33 10° SW 20:53:03 55° NW 21:01:41 10° NNE
BREEZE-M DEB (TANK) 3.3 20:50:39 10° SW 20:54:02 57° SE 21:05:03 10° ENE
Cosmos 1048 Rocket 3.8 20:50:03 10° NNW 20:55:12 84° ENE 20:57:43 31° SSE
Cosmos 2173 Rocket 4.0 20:49:13 10° S 20:55:13 58° E 21:01:20 10° NNE
SPOT 5 4.3 20:56:29 24° ENE 20:56:29 24° ENE 21:00:31 10° NNE
Geosat 4.4 20:51:48 10° NNE 20:56:47 63° WNW 21:01:44 10° SW
Timation 1 Rocket 4.5 20:51:24 10° SSW 20:57:24 76° WNW 21:03:27 10° NNE
SAR-Lupe-4 4.3 20:55:34 20° S 20:57:51 51° W 21:01:21 10° NNW
YAOGAN 6 4.1 20:59:41 26° NE 20:59:41 26° NE 21:01:50 10° N
Tiangong 1 3.3 21:01:26 10° WSW 21:03:03 16° SW 21:03:03 16° SW
ERS-1 Rocket 3.2 21:03:25 45° E 21:03:59 47° ENE 21:08:49 10° N
Abrixas 3.9 21:05:05 10° WNW 21:06:57 35° W 21:06:57 35° W
Cosmos 1470 2.8 21:12:27 53° SSW 21:13:19 78° W 21:17:20 10° N
USA 186 4.3 21:15:09 14° W 21:15:09 14° W 21:16:08 10° WNW
Cosmos 1340 Rocket 2.8 21:13:26 10° N 21:17:07 73° N 21:17:07 73° N
Meteor 1-29 4.2 21:15:13 10° N 21:18:31 41° WNW 21:21:00 16° SW
Cosmos 1833 Rocket 2.7 21:13:45 10° NNW 21:19:22 76° WSW 21:21:15 43° S
H-2A R/B (2) 4.0 21:18:24 10° SW 21:20:59 19° S 21:20:59 19° S
Cosmos 1818 4.3 21:17:40 10° NW 21:22:52 47° WSW 21:25:02 31° SSW
Cosmos 2278 Rocket 4.2 21:18:14 10° WSW 21:23:03 28° NW 21:27:54 10° N
GP-B 4.2 21:19:19 10° SSW 21:23:31 42° W 21:27:45 10° NNW
COSMOS 2487 3.5 21:20:26 10° NNW 21:23:40 43° W 21:23:40 43° W
MetOp-B 4.5 21:24:40 47° NE 21:24:40 47° NE 21:29:24 10° N
Helios 1B rocket 4.1 21:22:47 10° N 21:26:30 33° WNW 21:30:12 10° SW
Cosmos 2016 Rocket 3.8 21:24:19 39° S 21:26:44 75° E 21:32:54 10° N
Cosmos 2251 Rocket 3.9 21:21:48 10° N 21:26:29 48° NE 21:26:29 48° NE
Cosmos 1733 3.9 21:27:32 52° W 21:27:43 52° W 21:31:32 10° N
Resurs 01 Rocket 4.5 21:25:07 10° SW 21:27:43 15° W 21:30:20 10° NW
Meteor 2-17 Rocket 4.3 21:25:50 44° SSE 21:27:55 75° E 21:34:04 10° NNE
CZ-3B DEB 4.0 21:23:32 10° W 21:31:12 31° NW 21:34:48 13° NNE
Cosmos 1725 Rocket 4.0 21:34:40 56° ENE 21:34:40 56° ENE 21:40:14 10° NNE
ATLAS 5 CENTAUR R/B 2.0 21:33:53 10° SW 21:38:32 67° NW 21:43:39 10° NNE
Meteor 1-11 4.3 21:39:08 10° N 21:44:04 66° NNE 21:44:04 66° NNE
Cosmos 1939 Rocket 4.4 21:46:50 33° WSW 21:47:04 33° W 21:50:51 10° NNW
SL-08 R/B 4.4 21:46:09 62° S 21:47:20 89° E 21:53:47 10° N
Tsikada Rocket 4.0 21:43:30 10° N 21:49:15 68° NE 21:49:15 68° NE
Cosmos 2082 Rocket 3.4 21:47:43 10° NW 21:52:51 36° WSW 21:54:34 29° SW
Meteor 1-16 Rocket 4.4 21:58:15 68° WSW 21:58:43 71° W 22:04:39 10° N
USA 215 3.5 21:53:09 10° NE 21:59:37 64° NW 22:06:03 10° WSW
ARGOS 3.9 22:10:26 47° NNW 22:10:26 47° NNW 22:14:13 10° NNW
Lacrosse 5 rocket 3.8 22:05:22 10° NW 22:06:37 19° NW 22:06:37 19° NW
H-2A R/B 3.5 22:24:04 32° N 22:24:04 32° N 22:26:53 10° N
USA 267 3.5 22:32:47 61° NNW 22:32:47 61° NNW 22:38:15 10° NW
SPOT 5 4.5 22:35:43 36° NW 22:35:43 36° NW 22:39:12 10° NNW
Lacrosse 5 4.4 22:31:14 10° NW 22:34:21 16° NNW 22:36:06 14° N
Terra 4.5 23:00:29 15° NNW 23:00:29 15° NNW 23:01:19 10° NNW
